Port Aransas, TX

5:11 AM CDT on August 18, 2017 (GMT -0500)
Port Aransas

Weather History for KRAS - October, 2011

Change the Weather History Date:

Tuesday, October 18, 2011

  Actual Average (KNGP) Record (KNGP)
Temperature  
Mean Temperature 74 °F -  
Max Temperature 78 °F 80 °F 91 °F (2007)
Min Temperature 68 °F 66 °F 53 °F (1999)
Cooling Degree Days 8    
Growing Degree Days 24 (Base 50)    
Moisture  
Dew Point 57 °F    
Average Humidity 57    
Maximum Humidity 100    
Minimum Humidity 30    
Precipitation  
Precipitation 0.03 in - - ()
Sea Level Pressure  
Sea Level Pressure 29.90 in    
Wind  
Wind Speed 16 mph (NNW)    
Max Wind Speed 28 mph    
Max Gust Speed 34 mph    
Visibility 10 miles    
Events      
Averages and records for this station are not official NWS values.
T = Trace of Precipitation, MM = Missing Value Source: NWS Daily Summary

Daily Weather History Graph

Daily Weather History Graph

Search for Another Location

Airport or City:

Trip Planner

Search our weather history database for the weather conditions in past years. The results will help you decide how hot, cold, wet, or windy it might be!

Date:

Astronomy

Oct. 18, 2011 Rise Set
Actual Time 7:30 AM CDT 6:56 PM CDT
Civil Twilight 7:06 AM CDT 7:20 PM CDT
Nautical Twilight 6:39 AM CDT 7:47 PM CDT
Astronomical Twilight 6:12 AM CDT 8:14 PM CDT
Moon 11:55 PM CDT 1:04 PM CDT
Length of Visible Light 12h 13m
Length of Day
11h 26m
Waning Gibbous, 64% of the Moon is Illuminated
Oct 18
Waning Gibbous
Oct 19
Last Quarter
Oct 26
New
Nov 2
First Quarter
Nov 10
Full

Hourly Weather History & Observations

Time (CDT) Temp. Dew Point Humidity Pressure Visibility Wind Dir Wind Speed Gust Speed Precip Events Conditions
12:15 AM 78.8 °F 73.4 °F 83% 29.76 in 10.0 mi South 12.7 mph 16.1 mph N/A   Clear
12:35 AM 78.8 °F 73.4 °F 83% 29.74 in 10.0 mi South 15.0 mph 19.6 mph N/A   Clear
12:55 AM 78.8 °F 73.4 °F 83% 29.74 in 10.0 mi South 13.8 mph - N/A   Clear
1:15 AM 78.8 °F 73.4 °F 83% 29.73 in 10.0 mi South 18.4 mph 21.9 mph N/A   Clear
1:35 AM 78.8 °F 73.4 °F 83% 29.73 in 10.0 mi South 16.1 mph 21.9 mph N/A   Clear
1:55 AM 78.8 °F 73.4 °F 83% 29.73 in 10.0 mi South 17.3 mph 21.9 mph N/A   Clear
2:15 AM 78.8 °F 73.4 °F 83% 29.74 in 10.0 mi South 15.0 mph - N/A   Clear
2:35 AM 78.8 °F 73.4 °F 83% 29.73 in 10.0 mi South 12.7 mph - N/A   Clear
2:55 AM 78.8 °F 73.4 °F 83% 29.74 in 10.0 mi SSW 11.5 mph 18.4 mph N/A   Clear
3:15 AM 78.8 °F 73.4 °F 83% 29.73 in 10.0 mi SSW 13.8 mph - N/A   Clear
3:35 AM 78.8 °F 73.4 °F 83% 29.75 in 10.0 mi SSW 11.5 mph - N/A   Partly Cloudy
3:55 AM 78.8 °F 73.4 °F 83% 29.78 in 10.0 mi Calm Calm - N/A   Scattered Clouds
4:15 AM 77.0 °F 73.4 °F 89% 29.76 in 10.0 mi South 3.5 mph - N/A   Partly Cloudy
4:35 AM 77.0 °F 73.4 °F 89% 29.78 in 10.0 mi Calm Calm - N/A   Clear
4:55 AM 77.0 °F 75.2 °F 94% 29.79 in 10.0 mi WNW 5.8 mph - N/A   Partly Cloudy
5:15 AM 77.0 °F 75.2 °F 94% 29.81 in 10.0 mi NNW 11.5 mph - N/A   Scattered Clouds
5:35 AM 77.0 °F 73.4 °F 89% 29.83 in 10.0 mi NNW 13.8 mph - N/A   Mostly Cloudy
5:55 AM 75.2 °F 73.4 °F 94% 29.84 in 10.0 mi NNW 15.0 mph 21.9 mph N/A   Scattered Clouds
6:15 AM 75.2 °F 75.2 °F 100% 29.85 in 10.0 mi NNW 15.0 mph - N/A   Partly Cloudy
6:35 AM 75.2 °F 75.2 °F 100% 29.85 in 10.0 mi NNW 10.4 mph - N/A   Mostly Cloudy
6:55 AM 75.2 °F 75.2 °F 100% 29.85 in 10.0 mi NNW 10.4 mph - N/A   Scattered Clouds
7:15 AM 77.0 °F 73.4 °F 89% 29.86 in 10.0 mi North 21.9 mph 26.5 mph N/A   Scattered Clouds
7:35 AM 73.4 °F 68.0 °F 83% 29.87 in 10.0 mi North 23.0 mph 26.5 mph N/A   Mostly Cloudy
7:55 AM 71.6 °F 59.0 °F 64% 29.88 in 10.0 mi North 27.6 mph 32.2 mph N/A   Scattered Clouds
8:15 AM 71.6 °F 57.2 °F 60% 29.89 in 10.0 mi North 25.3 mph 34.5 mph N/A   Partly Cloudy
8:35 AM 73.4 °F 57.2 °F 57% 29.91 in 10.0 mi North 26.5 mph 32.2 mph N/A   Clear
8:55 AM 73.4 °F 55.4 °F 53% 29.92 in 10.0 mi North 24.2 mph 34.5 mph 0.02 in   Clear
9:15 AM 73.4 °F 53.6 °F 50% 29.93 in 10.0 mi North 27.6 mph 32.2 mph N/A   Clear
9:35 AM 73.4 °F 53.6 °F 50% 29.94 in 10.0 mi NNW 23.0 mph 32.2 mph N/A   Clear
9:55 AM 73.4 °F 53.6 °F 50% 29.94 in 10.0 mi North 23.0 mph 32.2 mph N/A   Clear
10:15 AM 73.4 °F 51.8 °F 47% 29.95 in 10.0 mi North 25.3 mph 29.9 mph N/A   Clear
10:35 AM 73.4 °F 50.0 °F 44% 29.95 in 10.0 mi North 21.9 mph 33.4 mph N/A   Clear
10:55 AM 73.4 °F 48.2 °F 41% 29.96 in 10.0 mi NNW 24.2 mph 32.2 mph N/A   Clear
11:15 AM 73.4 °F 48.2 °F 41% 29.96 in 10.0 mi North 19.6 mph - N/A   Clear
11:55 AM 73.4 °F 48.2 °F 41% 29.96 in 10.0 mi NNW 19.6 mph 25.3 mph N/A   Clear
12:15 PM 75.2 °F 46.4 °F 36% 29.96 in 10.0 mi NNW 23.0 mph 26.5 mph N/A   Clear
12:35 PM 75.2 °F 46.4 °F 36% 29.96 in 10.0 mi NNW 25.3 mph 31.1 mph N/A   Clear
1:15 PM 77.0 °F 44.6 °F 32% 29.97 in 10.0 mi NNW 24.2 mph 32.2 mph N/A   Clear
1:35 PM 77.0 °F 44.6 °F 32% 29.96 in 10.0 mi NNW 21.9 mph 27.6 mph N/A   Clear
1:55 PM 77.0 °F 46.4 °F 34% 29.95 in 10.0 mi NNW 19.6 mph 26.5 mph N/A   Clear
2:15 PM 77.0 °F 44.6 °F 32% 29.95 in 10.0 mi NNW 23.0 mph 28.8 mph N/A   Clear
2:35 PM 78.8 °F 46.4 °F 32% 29.94 in 10.0 mi NNW 18.4 mph 29.9 mph N/A   Clear
2:55 PM 78.8 °F 44.6 °F 30% 29.94 in 10.0 mi NNW 25.3 mph 32.2 mph N/A   Clear
3:15 PM 78.8 °F 46.4 °F 32% 29.94 in 10.0 mi NNW 20.7 mph 32.2 mph 0.01 in   Clear
3:55 PM 78.8 °F 44.6 °F 30% 29.94 in 10.0 mi NNW 24.2 mph 31.1 mph 0.01 in   Clear
4:15 PM 78.8 °F 44.6 °F 30% 29.94 in 10.0 mi North 20.7 mph 29.9 mph N/A   Clear
4:35 PM 78.8 °F 44.6 °F 30% 29.94 in 10.0 mi NNW 21.9 mph 29.9 mph N/A   Clear
4:55 PM 78.8 °F 44.6 °F 30% 29.95 in 10.0 mi North 21.9 mph 28.8 mph N/A   Clear
5:15 PM 77.0 °F 44.6 °F 32% 29.95 in 10.0 mi North 19.6 mph 24.2 mph N/A   Clear
5:35 PM 75.2 °F 44.6 °F 34% 29.96 in 10.0 mi North 24.2 mph 27.6 mph N/A   Clear
5:55 PM 75.2 °F 44.6 °F 34% 29.96 in 10.0 mi North 23.0 mph - N/A   Clear
6:15 PM 75.2 °F 46.4 °F 36% 29.97 in 10.0 mi North 19.6 mph - N/A   Clear
6:35 PM 73.4 °F 46.4 °F 38% 29.98 in 10.0 mi NNW 16.1 mph 21.9 mph N/A   Clear
6:55 PM 73.4 °F 46.4 °F 38% 29.99 in 10.0 mi North 17.3 mph - N/A   Clear
7:15 PM 73.4 °F 46.4 °F 38% 30.00 in 10.0 mi NNW 19.6 mph 23.0 mph N/A   Clear
7:35 PM 71.6 °F 46.4 °F 41% 30.02 in 10.0 mi North 16.1 mph - N/A   Clear
7:55 PM 71.6 °F 44.6 °F 38% 30.03 in 10.0 mi North 17.3 mph - N/A   Clear
8:15 PM 71.6 °F 44.6 °F 38% 30.04 in 10.0 mi North 19.6 mph 23.0 mph N/A   Clear
8:35 PM 69.8 °F 44.6 °F 40% 30.05 in 10.0 mi North 19.6 mph - N/A   Clear
8:55 PM 69.8 °F 44.6 °F 40% 30.06 in 10.0 mi North 13.8 mph 21.9 mph N/A   Clear
9:15 PM 69.8 °F 44.6 °F 40% 30.07 in 10.0 mi North 15.0 mph 19.6 mph N/A   Clear
9:35 PM 69.8 °F 44.6 °F 40% 30.08 in 10.0 mi North 13.8 mph - N/A   Clear
9:55 PM 68.0 °F 44.6 °F 43% 30.10 in 10.0 mi North 16.1 mph - N/A   Clear
10:15 PM 68.0 °F 46.4 °F 46% 30.11 in 10.0 mi North 11.5 mph - N/A   Clear
10:35 PM 66.2 °F 44.6 °F 46% 30.12 in 10.0 mi North 17.3 mph 23.0 mph N/A   Clear
10:55 PM 66.2 °F 44.6 °F 46% 30.13 in 10.0 mi North 13.8 mph 21.9 mph N/A   Clear
11:15 PM 66.2 °F 44.6 °F 46% 30.13 in 10.0 mi North 13.8 mph - N/A   Clear
11:35 PM 66.2 °F 44.6 °F 46% 30.13 in 10.0 mi North 11.5 mph - N/A   Clear
11:55 PM 66.2 °F 46.4 °F 49% 30.13 in 10.0 mi North 10.4 mph - N/A   Clear